Laramie, WY

8:11 PM MST on November 21, 2019 (GMT -0700)
Laramie Regional

Weather History for KLAR - October, 2019

Change the Weather History Date:

Monday, October 21, 2019

  Actual Average Record
Temperature  
Mean Temperature 30 °F -  
Max Temperature 41 °F 53 °F 74 °F (2003)
Min Temperature 21 °F 26 °F 9 °F (2007)
Degree Days  
Heating Degree Days 35    
Moisture  
Dew Point 18 °F    
Average Humidity 62    
Maximum Humidity 79    
Minimum Humidity 36    
Precipitation  
Precipitation 0.00 in - - ()
Sea Level Pressure  
Sea Level Pressure 30.03 in    
Wind  
Wind Speed 15 mph (WNW)    
Max Wind Speed 25 mph    
Max Gust Speed 33 mph    
Visibility 9 miles    
Events Snow    
Averages and records for this station are not official NWS values.
T = Trace of Precipitation, MM = Missing Value Source: NWS Daily Summary

Daily Weather History Graph

Daily Weather History Graph

Search for Another Location

Airport or City:

Astronomy

Oct. 21, 2019 Rise Set
Actual Time 7:21 AM MDT 6:12 PM MDT
Civil Twilight 6:52 AM MDT 6:41 PM MDT
Nautical Twilight 6:20 AM MDT 7:13 PM MDT
Astronomical Twilight 5:48 AM MDT 7:45 PM MDT
Moon No Moon Rise 2:43 PM MDT (10/21)
Length of Visible Light 11h 48m
Length of Day
10h 51m
Waning Gibbous, 47% of the Moon is Illuminated
Oct 21
Waning Gibbous
Oct 27
New
Nov 4
First Quarter
Nov 12
Full
Nov 19
Last Quarter

Hourly Weather History & Observations

Time (MDT) Temp. Windchill Dew Point Humidity Pressure Visibility Wind Dir Wind Speed Gust Speed Precip Events Conditions
12:53 AM 26.1 °F 14.0 °F 19.0 °F 75% 29.94 in 6.0 mi WNW 15.0 mph - 0.00 in Snow Light Snow
1:53 AM 26.1 °F 14.5 °F 17.1 °F 69% 29.95 in 10.0 mi West 13.8 mph - 0.00 in   Overcast
2:53 AM 26.1 °F 16.8 °F 17.1 °F 69% 29.95 in 10.0 mi West 9.2 mph - N/A   Overcast
3:53 AM 21.0 °F 11.4 °F 14.0 °F 74% 29.96 in 10.0 mi West 8.1 mph - N/A   Partly Cloudy
4:53 AM 25.0 °F 11.7 °F 16.0 °F 69% 29.94 in 10.0 mi WNW 17.3 mph - N/A   Overcast
5:53 AM 23.0 °F 11.1 °F 12.9 °F 65% 29.95 in 10.0 mi WNW 12.7 mph - N/A   Partly Cloudy
6:53 AM 23.0 °F 11.7 °F 12.9 °F 65% 29.98 in 10.0 mi NW 11.5 mph - N/A   Overcast
7:53 AM 23.0 °F 13.1 °F 14.0 °F 68% 29.99 in 10.0 mi NW 9.2 mph - N/A   Overcast
8:53 AM 26.1 °F 17.6 °F 14.0 °F 60% 30.01 in 10.0 mi NW 8.1 mph - N/A   Overcast
9:53 AM 28.9 °F 21.1 °F 16.0 °F 58% 30.00 in 10.0 mi WNW 8.1 mph - N/A   Overcast
10:53 AM 32.0 °F 22.5 °F 17.1 °F 54% 30.00 in 10.0 mi WNW 12.7 mph - N/A   Overcast
11:53 AM 36.0 °F 25.0 °F 19.0 °F 50% 29.98 in 10.0 mi NW 20.7 mph - N/A   Mostly Cloudy
12:53 PM 37.9 °F 27.1 °F 18.0 °F 45% 29.99 in 10.0 mi WNW 23.0 mph 31.1 mph N/A   Mostly Cloudy
1:53 PM 39.0 °F 28.0 °F 14.0 °F 36% 29.97 in 10.0 mi WNW 25.3 mph 32.2 mph N/A   Scattered Clouds
2:53 PM 36.0 °F 24.7 °F 14.0 °F 41% 30.00 in 10.0 mi NW 21.9 mph 27.6 mph N/A   Mostly Cloudy
3:53 PM 37.9 °F 27.3 °F 15.1 °F 39% 30.04 in 10.0 mi WNW 21.9 mph - N/A   Mostly Cloudy
4:53 PM 36.0 °F 25.6 °F 16.0 °F 44% 30.04 in 10.0 mi WNW 18.4 mph - N/A   Partly Cloudy
5:33 PM 30.0 °F 16.6 °F 21.9 °F 72% 30.06 in 1.8 mi WNW 23.0 mph 33.4 mph 0.00 in Snow Light Snow
5:43 PM 30.0 °F 17.9 °F 24.1 °F 79% 30.05 in 4.0 mi WNW 18.4 mph - 0.00 in Snow Light Snow
5:53 PM 30.9 °F 20.2 °F 24.1 °F 76% 30.10 in 10.0 mi WNW 15.0 mph - 0.00 in   Overcast
6:53 PM 30.9 °F 20.7 °F 23.0 °F 72% 30.13 in 6.0 mi NNW 13.8 mph 29.9 mph 0.00 in Snow Light Snow
7:53 PM 30.0 °F 21.7 °F 24.1 °F 79% 30.16 in 10.0 mi NNW 9.2 mph - 0.00 in   Overcast
8:53 PM 30.9 °F 22.8 °F 23.0 °F 72% 30.15 in 10.0 mi West 9.2 mph - N/A   Overcast
9:53 PM 30.9 °F 19.1 °F 18.0 °F 59% 30.15 in 10.0 mi West 18.4 mph - N/A   Overcast
10:53 PM 30.9 °F 19.4 °F 17.1 °F 57% 30.14 in 10.0 mi West 17.3 mph - N/A   Overcast
11:53 PM 28.9 °F 16.9 °F 16.0 °F 58% 30.14 in 10.0 mi WNW 17.3 mph - N/A   Clear